| time (UTC) | temp F | wind direction | speed knots | gust knots | rain 1hr in | rain 24hr in | rain mn in | humidity % | barometer mb |
| 20260504203046 | 80 | 179 | 7.8 | 16.5 | 0.00 | 0.11 | 0.11 | 41 | 999.1 |
| 20260504200040 | 79 | 192 | 7.0 | 18.2 | 0.00 | 0.11 | 0.11 | 43 | 999.5 |
| 20260504193034 | 78 | 187 | 4.3 | 13.9 | 0.00 | 0.11 | 0.11 | 45 | 999.7 |
| 20260504190028 | 76 | 205 | 1.7 | 3.5 | 0.00 | 0.11 | 0.11 | 58 | 1000.1 |
| 20260504183040 | 73 | 276 | 1.7 | 4.3 | 0.01 | 0.11 | 0.11 | 59 | 1000.8 |
| 20260504180054 | 68 | 167 | 0.9 | 10.4 | 0.01 | 0.11 | 0.11 | 69 | 999.7 |
| 20260504173045 | 68 | 167 | 3.5 | 8.7 | 0.00 | 0.10 | 0.10 | 67 | 1000.9 |
| 20260504070106 | 52 | 325 | 0.0 | 0.0 | 0.00 | 0.00 | 0.00 | 95 | 1004.4 |
| 20260504043034 | 57 | 325 | 0.0 | 0.0 | 0.00 | 0.00 | 0.00 | 86 | 1005.4 |
| 20260504040028 | 59 | 325 | 0.0 | 0.0 | 0.00 | 0.00 | 0.00 | 82 | 1005.4 |
| 20260504033107 | 60 | 325 | 0.0 | 0.0 | 0.00 | 0.00 | 0.00 | 79 | 1005.8 |
| 20260504030055 | 62 | 325 | 0.0 | 0.0 | 0.00 | 0.00 | 0.00 | 75 | 1005.7 |
| 20260504023029 | 63 | 325 | 0.0 | 0.0 | 0.00 | 0.00 | 0.00 | 72 | 1005.4 |
| 20260504020043 | 65 | 325 | 0.0 | 0.0 | 0.00 | 0.00 | 0.00 | 64 | 1005.3 |
| 20260504013102 | 68 | 325 | 0.0 | 0.0 | 0.00 | 0.00 | 0.00 | 56 | 1005.3 |
| 20260504010036 | 74 | 325 | 0.0 | 0.0 | 0.00 | 0.00 | 0.00 | 46 | 1005.1 |
| 20260504003030 | 77 | 325 | 0.0 | 3.5 | 0.00 | 0.00 | 0.00 | 37 | 1005.2 |
| 20260504000044 | 77 | 346 | 1.7 | 5.2 | 0.00 | 0.00 | 0.00 | 36 | 1005.2 |
| 20260503233036 | 78 | 198 | 2.6 | 7.8 | 0.00 | 0.00 | 0.00 | 33 | 1004.9 |
| 20260503230030 | 78 | 167 | 3.5 | 8.7 | 0.00 | 0.00 | 0.00 | 33 | 1005.2 |
| 20260503223041 | 79 | 196 | 1.7 | 11.3 | 0.00 | 0.00 | 0.00 | 33 | 1005.4 |
| 20260503220035 | 79 | 190 | 7.0 | 13.9 | 0.00 | 0.00 | 0.00 | 30 | 1005.5 |
| 20260503213029 | 79 | 172 | 6.1 | 13.0 | 0.00 | 0.00 | 0.00 | 31 | 1005.7 |
| 20260503210043 | 78 | 178 | 10.4 | 13.9 | 0.00 | 0.00 | 0.00 | 31 | 1006.5 |